Dewpoint
71 72 74 73 72 72 68 64 64 65 66 66 68 68 67 67 68 70 71 71 69 70 70 69 69 70 66 66 65 63 64 65 64 64 64 68 74 74 73 73 70 73 70
73 72 71 70 68 64 63 62 63 65 65 66 66 67 67 67 69 69 69 67 68 68 68 68 68 67 70 71 68 70 68 69 70 70 70 69 71 74 77 76 73 71 72
69 69 67 64 62 62 62 63 65 65 64 63 66 67 67 67 68 68 68 68 68 68 68 67 67 68 69 69 69 69 69 69 70 71 68 68 69 70 75 77 76 76 74
68 63 63 62 61 61 64 66 66 68 66 66 66 67 67 67 67 67 68 68 68 66 67 68 67 68 69 70 70 71 71 71 70 69 68 66 67 70 75 74 69 71 71
64 62 63 64 66 66 67 68 69 69 67 67 67 66 66 64 59 66 65 66 67 65 65 65 65 66 65 66 68 69 71 70 70 67 65 66 65 69 69 72 71 69 71
63 63 64 66 67 69 70 70 71 69 68 68 67 66 66 60 60 61 63 65 64 64 64 65 66 64 64 63 63 63 65 68 69 69 67 67 68 67 69 69 72 71 69
62 63 63 66 66 68 69 69 68 68 68 68 67 66 66 66 61 60 61 63 62 62 64 66 63 59 63 63 64 63 63 63 65 69 69 69 69 69 71 72 71 71 70
59 59 60 63 63 66 67 67 68 66 67 67 66 66 66 64 59 58 59 62 64 65 65 65 65 65 65 63 63 65 66 67 68 66 69 69 70 72 72 73 74 74 75
57 60 61 62 62 63 65 66 65 66 66 65 64 65 65 65 59 57 59 66 64 64 65 66 65 65 60 57 61 62 63 65 62 60 62 63 63 62 67 73 72 71 69
60 61 62 62 63 63 65 65 65 65 64 63 64 64 62 65 60 56 59 66 65 65 63 63 57 57 55 54 58 60 61 61 64 66 68 65 63 66 62 71 70 69 68
60 61 61 62 63 65 66 65 64 64 64 64 64 65 64 65 65 57 56 62 59 58 54 53 52 56 54 53 53 59 60 61 60 65 67 69 70 72 72 70 72 70 68
61 61 62 63 60 60 65 64 63 65 64 64 62 60 59 64 60 59 55 53 57 59 57 55 57 54 51 50 51 53 52 54 57 60 63 66 68 71 70 73 73 72 71
60 61 61 61 60 62 63 63 64 63 61 57 54 57 60 62 66 58 55 54 54 56 58 57 54 51 50 52 53 54 55 56 57 60 61 62 65 67 72 72 73 73 73
58 58 59 59 59 60 58 60 63 56 57 56 57 57 57 60 61 63 60 57 55 56 57 57 54 52 52 55 57 60 61 59 59 59 61 64 67 70 70 72 71 72 71
56 56 56 54 56 57 59 61 56 61 61 58 59 57 55 56 57 54 51 56 55 54 50 54 55 61 61 62 60 59 61 62 62 61 62 64 67 69 69 71 71 71 68
55 54 54 53 53 54 56 56 53 51 50 48 46 48 56 51 48 46 44 43 44 43 50 54 59 62 61 60 58 59 59 60 63 63 64 65 66 66 68 69 69 67 66
55 53 54 54 55 54 57 54 61 60 52 49 46 46 44 44 44 44 44 44 43 45 50 55 61 63 62 61 59 59 58 61 61 63 62 63 64 65 65 66 66 65 67
54 52 57 54 54 54 54 58 61 61 58 57 54 49 47 46 46 45 44 45 59 54 53 57 55 60 63 62 60 59 59 60 60 59 62 63 63 64 65 65 66 67 67
53 57 52 53 54 52 52 53 57 58 55 57 57 52 51 48 47 48 50 61 60 59 59 58 59 62 63 62 62 61 60 59 58 58 58 60 61 61 61 63 64 57 61
51 53 51 51 50 50 50 51 51 54 52 55 54 52 52 53 53 55 55 56 58 57 58 62 62 63 63 62 60 61 60 60 59 59 58 59 59 60 59 59 58 57 58
50 49 50 48 49 48 49 50 50 49 50 51 53 50 44 52 51 52 53 53 53 54 56 53 53 53 54 55 56 55 56 56 58 59 59 59 59 57 57 56 56 56 56
45 45 46 46 47 48 47 47 46 46 49 48 48 48 43 50 51 50 50 50 51 52 52 51 50 50 49 50 51 50 48 50 51 51 58 60 59 56 55 55 55 54 54
35 38 42 45 44 45 45 44 44 45 45 45 45 44 45 45 45 46 47 49 50 50 51 50 48 48 48 47 46 46 44 44 44 51 55 56 55 53 56 56 55 55 55
32 34 34 35 37 37 41 42 42 42 43 43 42 41 40 41 40 41 43 44 46 47 48 48 47 46 46 45 43 42 40 37 39 46 52 56 54 51 52 53 53 52 50
32 35 34 34 34 34 37 39 42 42 41 41 41 42 39 36 37 39 41 41 41 45 45 44 44 44 42 41 37 35 34 32 36 36 50 55 53 53 51 49 53 49 52
33 35 34 34 34 34 34 33 33 34 37 41 40 38 39 39 39 37 38 38 37 38 40 40 40 42 38 35 33 33 32 31 33 33 45 55 54 53 51 51 50 49 47
Lifted_Index
-8 -8 -7 -7 -6 -5 -3 -1 -1 -0 -0 -0 -0 -1 -1 -1 -2 -2 -3 -3 -3 -3 -3 -3 -3 -4 -4 -4 -4 -4 -4 -4 -4 -4 -4 -5 -5 -6 -6 -6 -6 -6 -6
-8 -7 -7 -6 -5 -3 -2 -1 -1 -0 -0 -0 -0 -1 -1 -1 -2 -2 -3 -3 -3 -3 -3 -3 -3 -4 -4 -4 -4 -4 -4 -4 -4 -5 -5 -5 -5 -6 -6 -6 -6 -6 -6
-6 -6 -5 -4 -3 -2 -1 -1 -1 -1 -1 -1 -1 -1 -2 -2 -2 -3 -3 -3 -3 -3 -3 -3 -3 -4 -4 -4 -5 -5 -5 -5 -5 -5 -5 -5 -5 -6 -6 -6 -6 -6 -7
-4 -4 -3 -2 -2 -2 -2 -2 -2 -3 -2 -2 -2 -2 -2 -2 -2 -3 -3 -3 -3 -2 -2 -2 -3 -3 -4 -4 -4 -5 -5 -5 -5 -5 -4 -4 -5 -5 -6 -6 -6 -6 -6
-3 -3 -3 -2 -3 -3 -3 -4 -4 -4 -3 -3 -3 -2 -2 -2 -2 -2 -3 -3 -2 -2 -2 -2 -3 -3 -3 -3 -3 -4 -4 -4 -4 -4 -4 -4 -4 -5 -6 -6 -6 -6 -6
-3 -3 -3 -3 -3 -4 -4 -5 -4 -4 -3 -3 -3 -3 -3 -2 -2 -2 -2 -2 -2 -2 -2 -3 -3 -3 -2 -2 -2 -2 -3 -3 -4 -4 -4 -4 -4 -5 -5 -6 -6 -6 -7
-2 -2 -2 -2 -3 -3 -4 -4 -4 -4 -3 -3 -3 -3 -3 -3 -2 -2 -2 -2 -2 -3 -3 -3 -3 -3 -2 -2 -2 -2 -2 -3 -3 -3 -4 -4 -4 -5 -5 -6 -6 -7 -7
-0 -0 -1 -1 -2 -2 -3 -4 -3 -3 -3 -3 -3 -3 -3 -3 -3 -2 -2 -3 -3 -4 -4 -4 -3 -3 -2 -1 -1 -1 -2 -2 -2 -3 -3 -3 -4 -5 -5 -6 -6 -7 -7
0 -0 -0 -1 -1 -2 -2 -3 -3 -3 -3 -3 -2 -2 -2 -3 -3 -2 -2 -3 -4 -4 -4 -4 -3 -2 -1 0 1 0 -1 -1 -2 -2 -2 -3 -3 -4 -4 -5 -6 -6 -6
-0 -0 -0 -1 -1 -2 -2 -2 -2 -2 -2 -2 -2 -2 -2 -3 -3 -2 -2 -2 -3 -3 -3 -2 -1 0 1 2 2 1 1 1 -0 -1 -2 -2 -3 -3 -4 -4 -5 -5 -5
0 -0 -0 -1 -1 -2 -2 -2 -2 -2 -2 -1 -1 -1 -2 -2 -3 -2 -1 -1 -1 -1 -1 -0 1 1 2 2 2 2 2 1 1 -0 -1 -2 -3 -4 -4 -5 -5 -5 -5
1 0 0 -0 -1 -1 -2 -2 -1 -1 -1 -1 -0 -0 -1 -2 -2 -2 -1 -0 0 0 0 1 1 1 1 2 2 1 1 1 1 0 -1 -2 -3 -4 -5 -5 -5 -5 -5
1 1 0 -0 -1 -1 -2 -1 -1 -1 -0 1 1 1 0 -0 -1 -1 -0 1 1 1 1 1 1 2 2 2 2 2 1 1 1 0 -1 -2 -3 -4 -5 -5 -5 -5 -5
2 2 1 0 -0 -1 -1 -1 -0 0 1 1 1 2 2 1 0 0 1 1 1 1 1 1 1 1 1 1 2 2 2 1 1 0 -0 -2 -3 -4 -5 -5 -5 -5 -5
3 2 1 1 0 -0 -0 -0 0 1 1 1 2 2 2 2 2 2 2 2 2 1 1 1 0 0 1 1 3 3 3 1 0 -0 -1 -2 -3 -4 -5 -5 -5 -4 -4
3 3 2 2 1 0 0 0 0 0 1 2 2 2 3 2 2 2 2 2 1 1 1 0 -0 -0 0 2 3 4 3 1 -0 -1 -2 -2 -3 -4 -4 -4 -4 -3 -3
4 3 2 2 1 1 1 0 0 0 1 2 2 2 2 2 2 1 1 1 1 1 0 -0 -1 -1 0 2 3 4 3 2 1 -1 -2 -2 -3 -3 -3 -3 -3 -3 -3
4 3 3 2 2 2 1 1 1 1 1 2 3 3 2 2 2 1 1 1 1 0 0 -0 -0 -1 -0 1 2 4 4 3 3 1 -0 -1 -2 -2 -3 -3 -3 -3 -3
4 4 3 3 3 3 2 2 2 2 2 3 3 3 3 3 2 2 1 1 1 1 0 -0 -0 -1 -0 0 2 3 3 4 4 4 3 2 0 -1 -2 -2 -2 -2 -2
4 4 4 3 3 3 3 3 2 2 2 3 3 3 3 3 3 2 2 1 2 2 1 1 0 0 0 1 2 2 3 3 4 5 5 4 3 2 1 0 -0 -0 -1
5 5 4 3 3 3 3 3 3 2 2 2 2 3 3 3 3 3 2 2 2 2 2 2 2 1 1 2 2 2 2 3 4 4 4 5 4 4 4 4 3 2 1
6 6 5 4 4 4 4 3 3 2 2 2 2 2 2 2 2 2 2 2 2 3 3 3 3 2 2 2 3 3 3 3 3 3 3 3 4 4 5 6 6 5 4
8 7 6 6 6 5 4 4 3 3 3 3 3 3 3 2 2 2 3 3 3 4 4 4 3 2 2 2 2 3 3 3 3 3 2 2 3 3 4 4 5 5 5
9 8 8 8 7 7 6 5 5 5 4 4 4 4 4 4 3 3 3 4 4 5 5 4 4 3 2 2 2 3 3 3 3 3 2 2 3 3 3 3 4 4 4
9 9 9 8 8 8 7 7 7 7 7 6 6 6 6 6 6 5 5 5 5 6 6 5 4 4 3 3 3 3 3 3 3 3 2 2 2 3 3 3 3 4 4
9 9 9 9 8 8 7 7 7 8 8 9 8 8 9 9 8 7 6 6 7 7 6 6 5 5 4 4 4 3 3 3 3 3 2 2 2 3 3 3 3 4 4